Regional Weather Roundup
Issued by NWS

Home | Current Version | Previous Version | Text Only | Print | Product List | Glossary On
Versions: 1 2 3 4 5 6 7 8 9 10 11 12 13 14 15 16 17 18 19 20 21 22 23 24 25 26 27 28 29 30 31 32 33 34 35 36 37 38 39 40 41 42 43 44 45 46 47 48 49 50
000
ASUS43 KBIS 180810
RWRND

NORTH DAKOTA REGIONAL WEATHER ROUNDUP
NATIONAL WEATHER SERVICE BISMARCK ND
200 AM CST THU JAN 18 2018

NOTE: "FAIR" INDICATES FEW OR NO CLOUDS BELOW 12,000 FEET WITH NO
SIGNIFICANT WEATHER AND/OR OBSTRUCTIONS TO VISIBILITY.


NDZ001>003-009>011-017-180900-
NORTHWEST NORTH DAKOTA

CITY           SKY/WX    TMP DP  RH WIND       PRES   REMARKS
WILLISTON      CLEAR     15  12  88 S5        29.87F WCI   8
MINOT          CLOUDY    27  18  69 SW14      29.82S WCI  16
MINOT AFB      CLOUDY    24  17  75 W16       29.80F WCI  11
$$

NDZ018>021-031>035-040>046-180900-
SOUTHWEST NORTH DAKOTA

CITY           SKY/WX    TMP DP  RH WIND       PRES   REMARKS
BISMARCK       PTCLDY    26  19  74 SW5       29.92F
DICKINSON      PTCLDY    22  16  78 SW5       29.86F WCI  16
GARRISON         N/A     23  17  78 W14       29.84F WCI  11
HETTINGER ARPT MOCLDY    23  17  78 W3        29.93F
$$

NDZ004>008-012>016-024-026-027-054-180900-
NORTHEAST NORTH DAKOTA

CITY           SKY/WX    TMP DP  RH WIND       PRES   REMARKS
GRAND FORKS    FAIR      36  25  64 W16       29.76R
GRND FRKS AFB  MOCLDY    36  23  59 W21       29.76S
DEVILS LAKE    FAIR      26  20  77 W16       29.79F WCI  14
$$

NDZ022-023-025-028>030-036>039-047>053-180900-
SOUTHEAST NORTH DAKOTA

CITY           SKY/WX    TMP DP  RH WIND       PRES   REMARKS
FARGO          FAIR      34  24  67 SW18      29.83F
JAMESTOWN      PTCLDY    32  23  69 W12       29.85S
$$




USA.gov is the U.S. government's official web portal to all federal, state and local government web resources and services.